Overview Statistics Trail Chart Weather Telemetry Raw packets
 

This is the latest recevied weather packets stored in our database for station/object N4BBA. If no packets are shown the sender has not sent any weather packets the latest 10 day(s).

<< 33 34 35 36 37 38 39 >>
Time Temp. Humidity Pressure Rain* Wind** Luminosity Snow
1777480863 20° C 83% 1011.8 hPa 0 mm - 298 W/m² -
1777480559 19.44° C 83% 1011.6 hPa 0 mm - 260 W/m² -
1777480257 19.44° C 83% 1011.6 hPa 0 mm - 256 W/m² -
1777479952 18.89° C 84% 1012 hPa 0 mm - 163 W/m² -
1777479649 18.89° C 83% 1012 hPa 0 mm - 127 W/m² -
1777479348 18.89° C 83% 1012.1 hPa 0 mm - 139 W/m² -
1777479043 18.89° C 83% 1012 hPa 0 mm - 146 W/m² -
1777478740 18.89° C 83% 1012.4 hPa 0 mm - 95 W/m² -
1777478437 18.89° C 83% 1012.4 hPa 0 mm - 109 W/m² -
1777478133 18.89° C 83% 1012.5 hPa 0 mm - 88 W/m² -
1777477830 18.89° C 83% 1012.7 hPa 0 mm - 105 W/m² -
1777477525 18.89° C 83% 1012.9 hPa 0 mm - 97 W/m² -
1777477222 18.89° C 83% 1012.9 hPa 0 mm - 100 W/m² -
1777476919 18.89° C 82% 1012.8 hPa 0 mm - 107 W/m² -
1777476617 18.89° C 82% 1013.1 hPa 0 mm - 116 W/m² -
1777476313 19.44° C 82% 1013 hPa 0 mm - 128 W/m² -
1777476009 19.44° C 81% 1013.1 hPa 0 mm - 141 W/m² -
1777475705 19.44° C 82% 1013.2 hPa 0 mm - 171 W/m² -
1777475401 19.44° C 82% 1013.3 hPa 0 mm - 162 W/m² -
1777475096 18.89° C 82% 1013 hPa 0 mm - 181 W/m² -
1777474793 19.44° C 82% 1013.1 hPa 0 mm - 180 W/m² -
1777474489 19.44° C 82% 1013.1 hPa 0 mm - 304 W/m² -
1777474186 19.44° C 83% 1012.7 hPa 0 mm - 293 W/m² -
1777473884 18.89° C 83% 1012.9 hPa 0 mm - 203 W/m² -
1777473581 18.89° C 83% 1013.2 hPa 0 mm - 138 W/m² -

* Rain latest hour (hover to see other rain measurements)
** Current wind speed in m/s (hover to see current wind gust speed)